TimeEDT,TemperatureF,Dew PointF,Humidity,Sea Level PressureIn,VisibilityMPH,Wind Direction,Wind SpeedMPH,Gust SpeedMPH,PrecipitationIn,Events,Conditions,WindDirDegrees,DateUTC
12:15 AM,69.8,64.4,83,30.13,10.0,NE,3.5,-,N/A,,Clear,40,2012-10-11 04:15:00
12:35 AM,69.8,64.4,83,30.13,10.0,ENE,4.6,-,N/A,,Clear,60,2012-10-11 04:35:00
12:55 AM,68.0,64.4,88,30.13,10.0,NE,3.5,-,N/A,,Clear,50,2012-10-11 04:55:00
1:15 AM,68.0,64.4,88,30.13,10.0,NE,3.5,-,N/A,,Clear,50,2012-10-11 05:15:00
1:35 AM,68.0,64.4,88,30.13,5.0,NE,3.5,-,N/A,,Clear,50,2012-10-11 05:35:00
1:55 AM,68.0,64.4,88,30.12,4.0,Calm,Calm,-,N/A,,Clear,0,2012-10-11 05:55:00
2:15 AM,68.0,64.4,88,30.12,10.0,Calm,Calm,-,N/A,,Clear,0,2012-10-11 06:15:00
2:35 AM,68.0,64.4,88,30.11,10.0,NE,4.6,-,N/A,,Clear,50,2012-10-11 06:35:00
2:55 AM,68.0,64.4,88,30.11,10.0,NE,4.6,-,N/A,,Clear,50,2012-10-11 06:55:00
3:35 AM,66.2,64.4,94,30.10,10.0,NE,5.8,-,N/A,,Clear,40,2012-10-11 07:35:00
3:55 AM,66.2,64.4,94,30.10,10.0,NE,4.6,-,N/A,,Clear,50,2012-10-11 07:55:00
4:15 AM,66.2,64.4,94,30.10,7.0,NE,4.6,-,N/A,,Clear,50,2012-10-11 08:15:00
4:35 AM,66.2,64.4,94,30.10,7.0,NE,4.6,-,N/A,,Clear,50,2012-10-11 08:35:00
4:55 AM,66.2,64.4,94,30.10,10.0,NE,5.8,-,N/A,,Clear,40,2012-10-11 08:55:00
5:15 AM,66.2,64.4,94,30.10,7.0,ENE,4.6,-,N/A,,Clear,60,2012-10-11 09:15:00
5:35 AM,66.2,64.4,94,30.11,7.0,Calm,Calm,-,N/A,,Clear,0,2012-10-11 09:35:00
5:55 AM,66.2,62.6,88,30.12,7.0,Calm,Calm,-,N/A,,Clear,0,2012-10-11 09:55:00
6:35 AM,64.4,62.6,94,30.12,7.0,North,3.5,-,N/A,,Clear,10,2012-10-11 10:35:00
6:55 AM,66.2,64.4,94,30.13,7.0,North,3.5,4.6,N/A,,Clear,10,2012-10-11 10:55:00
7:50 AM,66.2,64.4,94,30.15,5.0,NNE,4.6,-,N/A,,Clear,30,2012-10-11 11:50:00
8:50 AM,69.8,66.2,88,30.16,7.0,NNE,4.6,-,N/A,,Clear,30,2012-10-11 12:50:00
9:50 AM,75.2,64.4,69,30.18,7.0,NE,9.2,-,N/A,,Clear,40,2012-10-11 13:50:00
10:50 AM,77.0,64.4,65,30.18,10.0,NE,10.4,-,N/A,,Partly Cloudy,50,2012-10-11 14:50:00
11:50 AM,80.6,64.4,58,30.18,12.0,ENE,5.8,-,N/A,,Scattered Clouds,70,2012-10-11 15:50:00
12:50 PM,82.4,64.4,54,30.16,12.0,ENE,10.4,-,N/A,,Scattered Clouds,60,2012-10-11 16:50:00
1:50 PM,82.4,62.6,51,30.15,12.0,NE,9.2,-,N/A,,Scattered Clouds,50,2012-10-11 17:50:00
2:50 PM,84.2,64.4,51,30.13,12.0,NNE,10.4,-,N/A,,Scattered Clouds,30,2012-10-11 18:50:00
3:50 PM,84.2,62.6,48,30.12,12.0,NE,6.9,16.1,N/A,,Clear,40,2012-10-11 19:50:00
4:50 PM,84.2,60.8,45,30.12,12.0,ENE,9.2,-,N/A,,Partly Cloudy,70,2012-10-11 20:50:00
7:50 PM,77.0,64.4,65,30.14,10.0,ENE,8.1,-,N/A,,Clear,70,2012-10-11 23:50:00
9:50 PM,73.4,64.4,73,30.17,10.0,ENE,8.1,-,N/A,,Clear,60,2012-10-12 01:50:00
11:15 PM,69.8,64.4,83,30.18,10.0,NE,8.1,-,N/A,,Clear,50,2012-10-12 03:15:00
11:35 PM,69.8,62.6,78,30.18,10.0,NNE,4.6,9.2,N/A,,Clear,30,2012-10-12 03:35:00